Time,TemperatureF,DewpointF,PressureIn,WindDirection,WindDirectionDegrees,WindSpeedMPH,WindSpeedGustMPH,Humidity,HourlyPrecipIn,Conditions,Clouds,dailyrainin,SoftwareType,DateUTC
2013-07-20 00:01:00,77.0,68.1,29.89,SW,225,13.0,16.0,74,0.00,,---,0.00,VWS V14.01,2013-07-20 04:01:00,
2013-07-20 00:02:00,77.0,68.1,29.89,West,270,13.0,19.0,74,0.00,,---,0.00,VWS V14.01,2013-07-20 04:02:00,
2013-07-20 00:05:00,77.0,68.5,29.89,West,270,13.0,19.0,75,0.00,,---,0.00,VWS V14.01,2013-07-20 04:05:00,
2013-07-20 00:10:00,77.0,68.5,29.90,WSW,248,11.0,20.0,75,0.00,,---,0.00,VWS V14.01,2013-07-20 04:10:00,
2013-07-20 00:15:00,76.0,67.5,29.90,WSW,248,10.0,21.0,75,0.00,,---,0.00,VWS V14.01,2013-07-20 04:15:00,
2013-07-20 00:20:00,76.0,67.5,29.89,WSW,248,7.0,21.0,75,0.00,,---,0.00,VWS V14.01,2013-07-20 04:20:00,
2013-07-20 00:25:00,76.0,67.5,29.89,SSW,202,7.0,12.0,75,0.00,,---,0.00,VWS V14.01,2013-07-20 04:25:00,
2013-07-20 00:30:00,76.0,67.5,29.90,WSW,248,5.0,14.0,75,0.00,,---,0.00,VWS V14.01,2013-07-20 04:30:00,
2013-07-20 00:35:00,76.0,67.5,29.90,WSW,248,8.0,14.0,75,0.00,,---,0.00,VWS V14.01,2013-07-20 04:35:00,
2013-07-20 00:40:00,76.0,67.5,29.89,WSW,248,6.0,8.0,75,0.00,,---,0.00,VWS V14.01,2013-07-20 04:40:00,
2013-07-20 00:41:00,76.0,67.5,29.90,WSW,248,6.0,10.0,75,0.00,,---,0.00,VWS V14.01,2013-07-20 04:41:00,
2013-07-20 00:46:00,76.0,67.5,29.90,WSW,248,5.0,10.0,75,0.00,,---,0.00,VWS V14.01,2013-07-20 04:46:00,
2013-07-20 00:51:00,76.0,67.5,29.90,WSW,248,6.0,10.0,75,0.00,,---,0.00,VWS V14.01,2013-07-20 04:51:00,
2013-07-20 00:56:00,76.0,67.1,29.90,WSW,248,8.0,13.0,74,0.00,,---,0.00,VWS V14.01,2013-07-20 04:56:00,
2013-07-20 01:01:00,75.0,66.6,29.90,West,270,8.0,11.0,75,0.00,,---,0.00,VWS V14.01,2013-07-20 05:01:00,
2013-07-20 01:06:00,75.0,66.6,29.90,West,270,7.0,11.0,75,0.00,,---,0.00,VWS V14.01,2013-07-20 05:06:00,
2013-07-20 01:11:00,75.0,66.9,29.90,WSW,248,7.0,11.0,76,0.00,,---,0.00,VWS V14.01,2013-07-20 05:11:00,
2013-07-20 01:17:00,75.0,66.9,29.90,SW,225,3.0,11.0,76,0.00,,---,0.00,VWS V14.01,2013-07-20 05:17:00,
2013-07-20 01:22:00,75.0,67.3,29.90,WNW,292,6.0,12.0,77,0.00,,---,0.00,VWS V14.01,2013-07-20 05:22:00,
2013-07-20 01:27:00,75.0,67.3,29.90,NW,315,6.0,12.0,77,0.00,,---,0.00,VWS V14.01,2013-07-20 05:27:00,
2013-07-20 01:32:00,75.0,67.7,29.89,WSW,248,9.0,12.0,78,0.00,,---,0.00,VWS V14.01,2013-07-20 05:32:00,
2013-07-20 01:37:00,75.0,67.7,29.90,WSW,248,6.0,12.0,78,0.00,,---,0.00,VWS V14.01,2013-07-20 05:37:00,
2013-07-20 01:42:00,75.0,67.7,29.90,West,270,8.0,13.0,78,0.00,,---,0.00,VWS V14.01,2013-07-20 05:42:00,
2013-07-20 01:47:00,75.0,68.1,29.90,West,270,11.0,13.0,79,0.00,,---,0.00,VWS V14.01,2013-07-20 05:47:00,
2013-07-20 01:52:00,74.0,67.1,29.89,WSW,248,6.0,13.0,79,0.00,,---,0.00,VWS V14.01,2013-07-20 05:52:00,
2013-07-20 01:57:00,74.0,67.4,29.89,West,270,8.0,13.0,80,0.00,,---,0.00,VWS V14.01,2013-07-20 05:57:00,
2013-07-20 02:02:00,74.0,67.8,29.89,WSW,248,9.0,10.0,81,0.00,,---,0.00,VWS V14.01,2013-07-20 06:02:00,
2013-07-20 02:07:00,73.0,67.2,29.87,WSW,248,10.0,14.0,82,0.00,,---,0.00,VWS V14.01,2013-07-20 06:07:00,
2013-07-20 02:13:00,73.0,67.5,29.86,SW,225,9.0,14.0,83,0.00,,---,0.00,VWS V14.01,2013-07-20 06:13:00,
2013-07-20 02:18:00,72.0,66.9,29.84,WSW,248,8.0,14.0,84,0.00,,---,0.00,VWS V14.01,2013-07-20 06:18:00,
2013-07-20 02:23:00,72.0,67.2,29.84,WSW,248,7.0,10.0,85,0.00,,---,0.00,VWS V14.01,2013-07-20 06:23:00,
2013-07-20 02:28:00,72.0,67.6,29.85,SW,225,5.0,13.0,86,0.00,,---,0.00,VWS V14.01,2013-07-20 06:28:00,
2013-07-20 02:33:00,71.0,66.6,29.85,SW,225,8.0,15.0,86,0.00,,---,0.00,VWS V14.01,2013-07-20 06:33:00,
2013-07-20 02:38:00,71.0,66.9,29.85,SW,225,9.0,17.0,87,0.00,,---,0.00,VWS V14.01,2013-07-20 06:38:00,
2013-07-20 02:43:00,71.0,67.3,29.85,SW,225,8.0,18.0,88,0.00,,---,0.00,VWS V14.01,2013-07-20 06:43:00,
2013-07-20 02:48:00,70.0,66.3,29.84,WSW,248,8.0,18.0,88,0.01,,---,0.01,VWS V14.01,2013-07-20 06:48:00,
2013-07-20 02:53:00,70.0,66.3,29.84,SW,225,8.0,18.0,88,0.01,,---,0.01,VWS V14.01,2013-07-20 06:53:00,
2013-07-20 02:58:00,70.0,66.6,29.85,SW,225,4.0,18.0,89,0.01,,---,0.01,VWS V14.01,2013-07-20 06:58:00,
2013-07-20 03:03:00,70.0,66.6,29.84,SW,225,2.0,7.0,89,0.02,,---,0.02,VWS V14.01,2013-07-20 07:03:00,
2013-07-20 03:08:00,70.0,66.6,29.84,WSW,248,10.0,13.0,89,0.02,,---,0.02,VWS V14.01,2013-07-20 07:08:00,
2013-07-20 03:14:00,70.0,66.3,29.84,WSW,248,5.0,13.0,88,0.03,,---,0.03,VWS V14.01,2013-07-20 07:14:00,
2013-07-20 03:19:00,70.0,66.3,29.85,West,270,7.0,13.0,88,0.03,,---,0.03,VWS V14.01,2013-07-20 07:19:00,
2013-07-20 03:24:00,69.0,65.6,29.85,SSW,202,5.0,7.0,89,0.03,,---,0.03,VWS V14.01,2013-07-20 07:24:00,
2013-07-20 03:29:00,69.0,65.6,29.86,WNW,292,3.0,7.0,89,0.04,,---,0.04,VWS V14.01,2013-07-20 07:29:00,
2013-07-20 03:34:00,69.0,65.6,29.87,WNW,292,4.0,8.0,89,0.04,,---,0.04,VWS V14.01,2013-07-20 07:34:00,
2013-07-20 03:39:00,69.0,65.9,29.88,West,270,3.0,8.0,90,0.05,,---,0.05,VWS V14.01,2013-07-20 07:39:00,
2013-07-20 03:44:00,69.0,66.3,29.89,NW,315,4.0,8.0,91,0.06,,---,0.06,VWS V14.01,2013-07-20 07:44:00,
2013-07-20 03:49:00,69.0,66.6,29.90,NNW,338,5.0,10.0,92,0.07,,---,0.07,VWS V14.01,2013-07-20 07:49:00,
2013-07-20 03:54:00,69.0,66.9,29.91,WNW,292,6.0,11.0,93,0.08,,---,0.08,VWS V14.01,2013-07-20 07:54:00,
2013-07-20 03:59:00,69.0,66.9,29.91,WNW,292,6.0,11.0,93,0.09,,---,0.09,VWS V14.01,2013-07-20 07:59:00,
2013-07-20 04:04:00,69.0,66.9,29.91,WNW,292,3.0,8.0,93,0.10,,---,0.11,VWS V14.01,2013-07-20 08:04:00,
2013-07-20 04:10:00,69.0,66.9,29.91,West,270,5.0,10.0,93,0.11,,---,0.12,VWS V14.01,2013-07-20 08:10:00,
2013-07-20 04:15:00,69.0,66.9,29.90,NW,315,3.0,10.0,93,0.12,,---,0.13,VWS V14.01,2013-07-20 08:15:00,
2013-07-20 04:20:00,68.0,65.9,29.89,WNW,292,1.0,10.0,93,0.13,,---,0.14,VWS V14.01,2013-07-20 08:20:00,
2013-07-20 04:25:00,68.0,66.2,29.90,WNW,292,4.0,8.0,94,0.13,,---,0.16,VWS V14.01,2013-07-20 08:25:00,
2013-07-20 04:30:00,68.0,66.2,29.89,WNW,292,3.0,8.0,94,0.14,,---,0.17,VWS V14.01,2013-07-20 08:30:00,
2013-07-20 04:35:00,68.0,66.2,29.89,WNW,292,4.0,8.0,94,0.16,,---,0.19,VWS V14.01,2013-07-20 08:35:00,
2013-07-20 04:40:00,68.0,66.2,29.90,West,270,5.0,8.0,94,0.18,,---,0.21,VWS V14.01,2013-07-20 08:40:00,
2013-07-20 04:45:00,68.0,66.2,29.89,WSW,248,4.0,6.0,94,0.19,,---,0.24,VWS V14.01,2013-07-20 08:45:00,
2013-07-20 04:50:00,68.0,66.2,29.89,West,270,0.0,6.0,94,0.22,,---,0.27,VWS V14.01,2013-07-20 08:50:00,
2013-07-20 04:55:00,68.0,66.5,29.89,WSW,248,5.0,6.0,95,0.26,,---,0.31,VWS V14.01,2013-07-20 08:55:00,
2013-07-20 05:01:00,68.0,66.5,29.89,SW,225,3.0,5.0,95,0.24,,---,0.34,VWS V14.01,2013-07-20 09:01:00,
2013-07-20 05:06:00,67.0,65.5,29.90,SW,225,6.0,6.0,95,0.26,,---,0.36,VWS V14.01,2013-07-20 09:06:00,
2013-07-20 05:11:00,67.0,65.5,29.90,SW,225,3.0,6.0,95,0.27,,---,0.37,VWS V14.01,2013-07-20 09:11:00,
2013-07-20 05:16:00,67.0,65.5,29.89,SW,225,3.0,6.0,95,0.29,,---,0.39,VWS V14.01,2013-07-20 09:16:00,
2013-07-20 05:21:00,67.0,65.5,29.89,SSW,202,2.0,5.0,95,0.28,,---,0.43,VWS V14.01,2013-07-20 09:21:00,
2013-07-20 05:26:00,67.0,65.5,29.88,SE,135,3.0,6.0,95,0.34,,---,0.49,VWS V14.01,2013-07-20 09:26:00,
2013-07-20 05:31:00,67.0,65.5,29.88,South,180,5.0,7.0,95,0.36,,---,0.51,VWS V14.01,2013-07-20 09:31:00,
2013-07-20 05:36:00,67.0,65.5,29.89,SW,225,5.0,7.0,95,0.38,,---,0.53,VWS V14.01,2013-07-20 09:36:00,
2013-07-20 05:41:00,67.0,65.5,29.90,SSW,202,6.0,7.0,95,0.34,,---,0.55,VWS V14.01,2013-07-20 09:41:00,
2013-07-20 05:46:00,67.0,65.5,29.89,SSE,158,7.0,10.0,95,0.35,,---,0.56,VWS V14.01,2013-07-20 09:46:00,
2013-07-20 05:51:00,67.0,65.8,29.90,SW,225,3.0,10.0,96,0.37,,---,0.58,VWS V14.01,2013-07-20 09:51:00,
2013-07-20 05:56:00,67.0,65.8,29.90,SW,225,6.0,11.0,96,0.38,,---,0.59,VWS V14.01,2013-07-20 09:56:00,
2013-07-20 06:02:00,67.0,65.8,29.90,WSW,248,5.0,8.0,96,0.27,,---,0.61,VWS V14.01,2013-07-20 10:02:00,
2013-07-20 06:07:00,67.0,65.8,29.91,SW,225,7.0,11.0,96,0.30,,---,0.64,VWS V14.01,2013-07-20 10:07:00,
2013-07-20 06:12:00,67.0,65.8,29.91,WSW,248,6.0,12.0,96,0.33,,---,0.67,VWS V14.01,2013-07-20 10:12:00,
2013-07-20 06:17:00,67.0,65.8,29.91,SW,225,8.0,12.0,96,0.34,,---,0.68,VWS V14.01,2013-07-20 10:17:00,
2013-07-20 06:22:00,67.0,65.8,29.91,SSW,202,8.0,11.0,96,0.29,,---,0.70,VWS V14.01,2013-07-20 10:22:00,
2013-07-20 06:27:00,67.0,65.8,29.89,SW,225,10.0,11.0,96,0.31,,---,0.72,VWS V14.01,2013-07-20 10:27:00,
2013-07-20 06:32:00,67.0,65.8,29.89,WSW,248,7.0,16.0,96,0.32,,---,0.73,VWS V14.01,2013-07-20 10:32:00,
2013-07-20 06:37:00,67.0,65.8,29.89,South,180,9.0,16.0,96,0.32,,---,0.73,VWS V14.01,2013-07-20 10:37:00,
2013-07-20 06:42:00,67.0,65.8,29.88,SW,225,11.0,15.0,96,0.20,,---,0.74,VWS V14.01,2013-07-20 10:42:00,
2013-07-20 06:47:00,67.0,65.8,29.86,SSE,158,7.0,15.0,96,0.20,,---,0.74,VWS V14.01,2013-07-20 10:47:00,
2013-07-20 06:53:00,67.0,65.5,29.85,SSW,202,9.0,15.0,95,0.21,,---,0.75,VWS V14.01,2013-07-20 10:53:00,
2013-07-20 06:58:00,67.0,65.5,29.85,SSE,158,6.0,15.0,95,0.21,,---,0.75,VWS V14.01,2013-07-20 10:58:00,
2013-07-20 07:03:00,67.0,65.5,29.85,WSW,248,5.0,11.0,95,0.14,,---,0.75,VWS V14.01,2013-07-20 11:03:00,
2013-07-20 07:08:00,67.0,65.5,29.86,SW,225,10.0,16.0,95,0.14,,---,0.75,VWS V14.01,2013-07-20 11:08:00,
2013-07-20 07:13:00,67.0,65.5,29.86,South,180,12.0,19.0,95,0.14,,---,0.75,VWS V14.01,2013-07-20 11:13:00,
2013-07-20 07:18:00,67.0,65.5,29.84,West,270,16.0,19.0,95,0.14,,---,0.75,VWS V14.01,2013-07-20 11:18:00,
2013-07-20 07:23:00,67.0,65.5,29.80,SSE,158,6.0,23.0,95,0.05,,---,0.75,VWS V14.01,2013-07-20 11:23:00,
2013-07-20 07:28:00,67.0,65.5,29.79,South,180,8.0,24.0,95,0.05,,---,0.75,VWS V14.01,2013-07-20 11:28:00,
2013-07-20 07:34:00,67.0,65.2,29.80,SSW,202,7.0,24.0,94,0.05,,---,0.75,VWS V14.01,2013-07-20 11:34:00,
2013-07-20 07:39:00,67.0,65.2,29.81,WSW,248,10.0,24.0,94,0.06,,---,0.76,VWS V14.01,2013-07-20 11:39:00,
2013-07-20 07:44:00,67.0,65.2,29.82,West,270,13.0,16.0,94,0.02,,---,0.76,VWS V14.01,2013-07-20 11:44:00,
2013-07-20 07:49:00,67.0,65.2,29.83,NNW,338,3.0,17.0,94,0.02,,---,0.76,VWS V14.01,2013-07-20 11:49:00,
2013-07-20 07:54:00,67.0,65.2,29.83,SW,225,3.0,17.0,94,0.02,,---,0.76,VWS V14.01,2013-07-20 11:54:00,
2013-07-20 07:59:00,67.0,64.9,29.81,WSW,248,1.0,17.0,93,0.02,,---,0.76,VWS V14.01,2013-07-20 11:59:00,
2013-07-20 08:04:00,67.0,65.2,29.84,NNW,338,3.0,8.0,94,0.01,,---,0.76,VWS V14.01,2013-07-20 12:04:00,
2013-07-20 08:09:00,68.0,66.2,29.85,WNW,292,3.0,9.0,94,0.01,,---,0.76,VWS V14.01,2013-07-20 12:09:00,
2013-07-20 08:14:00,67.0,65.2,29.87,NW,315,5.0,11.0,94,0.01,,---,0.76,VWS V14.01,2013-07-20 12:14:00,
2013-07-20 08:20:00,67.0,65.2,29.87,WNW,292,6.0,11.0,94,0.01,,---,0.76,VWS V14.01,2013-07-20 12:20:00,
2013-07-20 08:25:00,67.0,65.2,29.87,WSW,248,7.0,10.0,94,0.01,,---,0.76,VWS V14.01,2013-07-20 12:25:00,
2013-07-20 08:30:00,67.0,65.2,29.87,West,270,9.0,10.0,94,0.01,,---,0.76,VWS V14.01,2013-07-20 12:30:00,
2013-07-20 08:35:00,67.0,65.2,29.88,WSW,248,8.0,11.0,94,0.01,,---,0.76,VWS V14.01,2013-07-20 12:35:00,
2013-07-20 08:40:00,67.0,65.2,29.88,WNW,292,6.0,11.0,94,0.01,,---,0.76,VWS V14.01,2013-07-20 12:40:00,
2013-07-20 08:45:00,67.0,65.2,29.89,WNW,292,5.0,10.0,94,0.00,,---,0.76,VWS V14.01,2013-07-20 12:45:00,
2013-07-20 08:50:00,67.0,64.9,29.88,West,270,3.0,10.0,93,0.00,,---,0.76,VWS V14.01,2013-07-20 12:50:00,
2013-07-20 08:55:00,68.0,65.9,29.88,West,270,2.0,10.0,93,0.00,,---,0.76,VWS V14.01,2013-07-20 12:55:00,
2013-07-20 09:01:00,68.0,65.9,29.89,West,270,2.0,3.0,93,0.00,,---,0.76,VWS V14.01,2013-07-20 13:01:00,
2013-07-20 09:06:00,68.0,65.6,29.89,WSW,248,9.0,10.0,92,0.00,,---,0.76,VWS V14.01,2013-07-20 13:06:00,
2013-07-20 09:11:00,68.0,65.6,29.88,WSW,248,3.0,10.0,92,0.00,,---,0.76,VWS V14.01,2013-07-20 13:11:00,
2013-07-20 09:16:00,68.0,65.6,29.88,SSE,158,5.0,10.0,92,0.00,,---,0.76,VWS V14.01,2013-07-20 13:16:00,
2013-07-20 09:21:00,68.0,65.3,29.88,WSW,248,3.0,7.0,91,0.00,,---,0.76,VWS V14.01,2013-07-20 13:21:00,
2013-07-20 09:26:00,68.0,65.3,29.88,WSW,248,5.0,7.0,91,0.00,,---,0.76,VWS V14.01,2013-07-20 13:26:00,
2013-07-20 09:31:00,69.0,66.3,29.87,WSW,248,0.0,7.0,91,0.00,,---,0.76,VWS V14.01,2013-07-20 13:31:00,
2013-07-20 09:36:00,69.0,65.9,29.87,SSW,202,3.0,7.0,90,0.00,,---,0.76,VWS V14.01,2013-07-20 13:36:00,
2013-07-20 09:42:00,69.0,65.9,29.87,West,270,3.0,4.0,90,0.00,,---,0.76,VWS V14.01,2013-07-20 13:42:00,
2013-07-20 09:47:00,69.0,65.9,29.88,WSW,248,5.0,7.0,90,0.00,,---,0.76,VWS V14.01,2013-07-20 13:47:00,
2013-07-20 09:52:00,69.0,65.9,29.87,West,270,4.0,8.0,90,0.00,,---,0.76,VWS V14.01,2013-07-20 13:52:00,
2013-07-20 09:57:00,69.0,65.9,29.87,SW,225,5.0,8.0,90,0.00,,---,0.76,VWS V14.01,2013-07-20 13:57:00,
2013-07-20 10:02:00,69.0,65.6,29.87,West,270,6.0,8.0,89,0.00,,---,0.76,VWS V14.01,2013-07-20 14:02:00,
2013-07-20 10:07:00,69.0,65.3,29.87,SW,225,5.0,8.0,88,0.00,,---,0.76,VWS V14.01,2013-07-20 14:07:00,
2013-07-20 10:12:00,69.0,65.3,29.87,West,270,4.0,8.0,88,0.00,,---,0.76,VWS V14.01,2013-07-20 14:12:00,
2013-07-20 10:17:00,69.0,65.3,29.88,WSW,248,4.0,8.0,88,0.00,,---,0.76,VWS V14.01,2013-07-20 14:17:00,
2013-07-20 10:23:00,69.0,65.3,29.88,WSW,248,3.0,6.0,88,0.00,,---,0.76,VWS V14.01,2013-07-20 14:23:00,
2013-07-20 10:28:00,70.0,66.3,29.88,WNW,292,4.0,6.0,88,0.00,,---,0.76,VWS V14.01,2013-07-20 14:28:00,
2013-07-20 10:33:00,70.0,66.3,29.89,WSW,248,5.0,6.0,88,0.00,,---,0.76,VWS V14.01,2013-07-20 14:33:00,
2013-07-20 10:38:00,70.0,65.6,29.88,West,270,6.0,8.0,86,0.00,,---,0.76,VWS V14.01,2013-07-20 14:38:00,
2013-07-20 10:43:00,71.0,66.3,29.89,WNW,292,6.0,8.0,85,0.00,,---,0.76,VWS V14.01,2013-07-20 14:43:00,
2013-07-20 10:48:00,71.0,65.6,29.89,WNW,292,7.0,11.0,83,0.00,,---,0.76,VWS V14.01,2013-07-20 14:48:00,
2013-07-20 10:53:00,71.0,65.2,29.89,WSW,248,7.0,13.0,82,0.00,,---,0.76,VWS V14.01,2013-07-20 14:53:00,
2013-07-20 10:58:00,71.0,65.2,29.89,WNW,292,6.0,13.0,82,0.00,,---,0.76,VWS V14.01,2013-07-20 14:58:00,
2013-07-20 11:04:00,72.0,66.2,29.89,NNW,338,6.0,13.0,82,0.00,,---,0.76,VWS V14.01,2013-07-20 15:04:00,
2013-07-20 11:09:00,72.0,65.5,29.89,WNW,292,9.0,13.0,80,0.00,,---,0.76,VWS V14.01,2013-07-20 15:09:00,
2013-07-20 11:14:00,72.0,64.8,29.89,WNW,292,13.0,15.0,78,0.00,,---,0.76,VWS V14.01,2013-07-20 15:14:00,
2013-07-20 11:19:00,73.0,65.7,29.90,WNW,292,9.0,16.0,78,0.00,,---,0.76,VWS V14.01,2013-07-20 15:19:00,
2013-07-20 11:24:00,73.0,65.0,29.90,West,270,11.0,18.0,76,0.00,,---,0.76,VWS V14.01,2013-07-20 15:24:00,
2013-07-20 11:29:00,73.0,65.4,29.90,WNW,292,9.0,18.0,77,0.00,,---,0.76,VWS V14.01,2013-07-20 15:29:00,
2013-07-20 11:34:00,73.0,64.2,29.90,West,270,20.0,20.0,74,0.00,,---,0.76,VWS V14.01,2013-07-20 15:34:00,
2013-07-20 11:39:00,73.0,64.6,29.90,WNW,292,13.0,20.0,75,0.00,,---,0.76,VWS V14.01,2013-07-20 15:39:00,
2013-07-20 11:44:00,74.0,65.6,29.90,WSW,248,9.0,18.0,75,0.00,,---,0.76,VWS V14.01,2013-07-20 15:44:00,
2013-07-20 11:50:00,74.0,65.6,29.90,West,270,10.0,20.0,75,0.00,,---,0.76,VWS V14.01,2013-07-20 15:50:00,
2013-07-20 11:55:00,74.0,65.2,29.89,West,270,11.0,20.0,74,0.00,,---,0.76,VWS V14.01,2013-07-20 15:55:00,
2013-07-20 12:00:00,74.0,65.2,29.90,WSW,248,10.0,20.0,74,0.00,,---,0.76,VWS V14.01,2013-07-20 16:00:00,
2013-07-20 12:05:00,73.0,65.0,29.90,WNW,292,6.0,16.0,76,0.00,,---,0.76,VWS V14.01,2013-07-20 16:05:00,
2013-07-20 12:10:00,73.0,64.6,29.90,SW,225,13.0,17.0,75,0.00,,---,0.76,VWS V14.01,2013-07-20 16:10:00,
2013-07-20 12:15:00,74.0,66.0,29.90,WSW,248,7.0,17.0,76,0.00,,---,0.76,VWS V14.01,2013-07-20 16:15:00,
2013-07-20 12:20:00,74.0,65.6,29.90,WSW,248,8.0,11.0,75,0.00,,---,0.76,VWS V14.01,2013-07-20 16:20:00,
2013-07-20 12:26:00,75.0,66.2,29.90,WNW,292,9.0,13.0,74,0.00,,---,0.76,VWS V14.01,2013-07-20 16:26:00,
2013-07-20 12:31:00,75.0,66.2,29.90,WNW,292,8.0,16.0,74,0.00,,---,0.76,VWS V14.01,2013-07-20 16:31:00,
2013-07-20 12:36:00,75.0,65.0,29.91,West,270,10.0,16.0,71,0.00,,---,0.76,VWS V14.01,2013-07-20 16:36:00,
2013-07-20 12:41:00,75.0,65.4,29.91,West,270,11.0,16.0,72,0.00,,---,0.76,VWS V14.01,2013-07-20 16:41:00,
2013-07-20 12:42:00,75.0,65.4,29.90,West,270,10.0,16.0,72,0.00,,---,0.76,VWS V14.01,2013-07-20 16:42:00,
2013-07-20 12:47:00,75.0,65.0,29.90,WNW,292,8.0,18.0,71,0.00,,---,0.76,VWS V14.01,2013-07-20 16:47:00,
2013-07-20 12:52:00,76.0,65.9,29.90,West,270,13.0,20.0,71,0.00,,---,0.76,VWS V14.01,2013-07-20 16:52:00,
2013-07-20 12:57:00,75.0,64.6,29.90,West,270,13.0,21.0,70,0.00,,---,0.76,VWS V14.01,2013-07-20 16:57:00,
2013-07-20 13:02:00,75.0,65.0,29.89,WSW,248,11.0,18.0,71,0.00,,---,0.76,VWS V14.01,2013-07-20 17:02:00,
2013-07-20 13:07:00,75.0,65.0,29.89,WSW,248,10.0,19.0,71,0.00,,---,0.76,VWS V14.01,2013-07-20 17:07:00,
2013-07-20 13:12:00,76.0,66.3,29.89,West,270,13.0,19.0,72,0.00,,---,0.76,VWS V14.01,2013-07-20 17:12:00,
2013-07-20 13:17:00,75.0,65.4,29.89,West,270,9.0,19.0,72,0.00,,---,0.76,VWS V14.01,2013-07-20 17:17:00,
2013-07-20 13:23:00,75.0,65.4,29.89,West,270,6.0,10.0,72,0.00,,---,0.76,VWS V14.01,2013-07-20 17:23:00,
2013-07-20 13:28:00,76.0,66.7,29.89,WSW,248,5.0,10.0,73,0.00,,---,0.76,VWS V14.01,2013-07-20 17:28:00,
2013-07-20 13:33:00,76.0,66.7,29.89,WSW,248,8.0,11.0,73,0.00,,---,0.76,VWS V14.01,2013-07-20 17:33:00,
2013-07-20 13:38:00,76.0,67.1,29.90,NW,315,5.0,13.0,74,0.00,,---,0.76,VWS V14.01,2013-07-20 17:38:00,
2013-07-20 13:43:00,75.0,65.4,29.90,WNW,292,15.0,19.0,72,0.00,,---,0.76,VWS V14.01,2013-07-20 17:43:00,
2013-07-20 13:48:00,75.0,65.8,29.89,West,270,11.0,22.0,73,0.00,,---,0.76,VWS V14.01,2013-07-20 17:48:00,
2013-07-20 13:53:00,75.0,65.8,29.90,WSW,248,13.0,22.0,73,0.00,,---,0.76,VWS V14.01,2013-07-20 17:53:00,
2013-07-20 13:58:00,75.0,66.2,29.90,NW,315,6.0,22.0,74,0.00,,---,0.76,VWS V14.01,2013-07-20 17:58:00,
2013-07-20 14:04:00,75.0,66.2,29.90,WNW,292,8.0,14.0,74,0.00,,---,0.76,VWS V14.01,2013-07-20 18:04:00,
2013-07-20 14:09:00,75.0,66.2,29.90,West,270,5.0,16.0,74,0.00,,---,0.76,VWS V14.01,2013-07-20 18:09:00,
2013-07-20 14:14:00,75.0,66.2,29.90,WNW,292,11.0,16.0,74,0.00,,---,0.76,VWS V14.01,2013-07-20 18:14:00,
2013-07-20 14:19:00,75.0,66.6,29.90,West,270,8.0,16.0,75,0.00,,---,0.76,VWS V14.01,2013-07-20 18:19:00,
2013-07-20 14:24:00,75.0,66.6,29.91,WSW,248,9.0,13.0,75,0.00,,---,0.76,VWS V14.01,2013-07-20 18:24:00,
2013-07-20 14:29:00,75.0,66.2,29.91,West,270,8.0,16.0,74,0.00,,---,0.76,VWS V14.01,2013-07-20 18:29:00,
2013-07-20 14:34:00,75.0,65.8,29.91,West,270,8.0,16.0,73,0.00,,---,0.76,VWS V14.01,2013-07-20 18:34:00,
2013-07-20 14:39:00,76.0,67.1,29.91,NW,315,6.0,16.0,74,0.00,,---,0.76,VWS V14.01,2013-07-20 18:39:00,
2013-07-20 14:44:00,76.0,67.1,29.91,West,270,11.0,13.0,74,0.00,,---,0.76,VWS V14.01,2013-07-20 18:44:00,
2013-07-20 14:49:00,76.0,67.1,29.91,West,270,11.0,15.0,74,0.00,,---,0.76,VWS V14.01,2013-07-20 18:49:00,
2013-07-20 14:55:00,76.0,67.9,29.91,WNW,292,10.0,16.0,76,0.00,,---,0.76,VWS V14.01,2013-07-20 18:55:00,
2013-07-20 15:00:00,76.0,67.5,29.90,SW,225,8.0,16.0,75,0.00,,---,0.76,VWS V14.01,2013-07-20 19:00:00,
2013-07-20 15:05:00,76.0,67.5,29.90,NW,315,4.0,11.0,75,0.00,,---,0.76,VWS V14.01,2013-07-20 19:05:00,
2013-07-20 15:10:00,76.0,67.9,29.90,WNW,292,8.0,11.0,76,0.00,,---,0.76,VWS V14.01,2013-07-20 19:10:00,
2013-07-20 15:15:00,76.0,68.3,29.90,NW,315,6.0,13.0,77,0.00,,---,0.76,VWS V14.01,2013-07-20 19:15:00,
2013-07-20 15:20:00,76.0,67.9,29.90,WNW,292,11.0,13.0,76,0.00,,---,0.76,VWS V14.01,2013-07-20 19:20:00,
2013-07-20 15:25:00,75.0,66.9,29.90,West,270,8.0,19.0,76,0.00,,---,0.76,VWS V14.01,2013-07-20 19:25:00,
2013-07-20 15:31:00,75.0,66.9,29.90,WNW,292,6.0,19.0,76,0.00,,---,0.76,VWS V14.01,2013-07-20 19:31:00,
2013-07-20 15:36:00,76.0,67.9,29.90,WSW,248,13.0,19.0,76,0.00,,---,0.76,VWS V14.01,2013-07-20 19:36:00,
2013-07-20 15:41:00,76.0,67.1,29.90,West,270,6.0,13.0,74,0.00,,---,0.76,VWS V14.01,2013-07-20 19:41:00,
2013-07-20 15:46:00,77.0,68.9,29.91,WNW,292,5.0,13.0,76,0.00,,---,0.76,VWS V14.01,2013-07-20 19:46:00,
2013-07-20 15:51:00,76.0,67.1,29.90,WNW,292,5.0,14.0,74,0.00,,---,0.76,VWS V14.01,2013-07-20 19:51:00,
2013-07-20 15:56:00,76.0,67.5,29.90,WNW,292,8.0,14.0,75,0.00,,---,0.76,VWS V14.01,2013-07-20 19:56:00,
2013-07-20 16:01:00,77.0,68.5,29.90,WSW,248,5.0,7.0,75,0.00,,---,0.76,VWS V14.01,2013-07-20 20:01:00,
2013-07-20 16:06:00,76.0,67.1,29.90,SW,225,8.0,13.0,74,0.00,,---,0.76,VWS V14.01,2013-07-20 20:06:00,
2013-07-20 16:11:00,76.0,66.7,29.90,WSW,248,6.0,16.0,73,0.00,,---,0.76,VWS V14.01,2013-07-20 20:11:00,
2013-07-20 16:17:00,76.0,67.1,29.89,WNW,292,8.0,16.0,74,0.00,,---,0.76,VWS V14.01,2013-07-20 20:17:00,
2013-07-20 16:22:00,76.0,67.1,29.89,WSW,248,8.0,11.0,74,0.00,,---,0.76,VWS V14.01,2013-07-20 20:22:00,
2013-07-20 16:27:00,76.0,67.1,29.89,WNW,292,7.0,14.0,74,0.00,,---,0.76,VWS V14.01,2013-07-20 20:27:00,
2013-07-20 16:32:00,77.0,68.5,29.89,WNW,292,5.0,14.0,75,0.00,,---,0.76,VWS V14.01,2013-07-20 20:32:00,
2013-07-20 16:37:00,76.0,66.3,29.89,WSW,248,6.0,16.0,72,0.00,,---,0.76,VWS V14.01,2013-07-20 20:37:00,
2013-07-20 16:42:00,77.0,68.1,29.89,WNW,292,5.0,8.0,74,0.00,,---,0.76,VWS V14.01,2013-07-20 20:42:00,
2013-07-20 16:47:00,76.0,67.5,29.89,NNW,338,3.0,10.0,75,0.00,,---,0.76,VWS V14.01,2013-07-20 20:47:00,
2013-07-20 16:52:00,75.0,66.9,29.90,WNW,292,3.0,12.0,76,0.00,,---,0.76,VWS V14.01,2013-07-20 20:52:00,
2013-07-20 16:57:00,75.0,67.3,29.90,WNW,292,3.0,12.0,77,0.00,,---,0.76,VWS V14.01,2013-07-20 20:57:00,
2013-07-20 17:02:00,74.0,66.7,29.89,WNW,292,7.0,10.0,78,0.01,,---,0.77,VWS V14.01,2013-07-20 21:02:00,
2013-07-20 17:07:00,73.0,66.5,29.89,West,270,5.0,10.0,80,0.01,,---,0.77,VWS V14.01,2013-07-20 21:07:00,
2013-07-20 17:13:00,74.0,68.5,29.90,West,270,6.0,10.0,83,0.01,,---,0.77,VWS V14.01,2013-07-20 21:13:00,
2013-07-20 17:18:00,74.0,68.5,29.90,WSW,248,6.0,10.0,83,0.01,,---,0.77,VWS V14.01,2013-07-20 21:18:00,
2013-07-20 17:23:00,74.0,67.8,29.90,WSW,248,6.0,8.0,81,0.01,,---,0.77,VWS V14.01,2013-07-20 21:23:00,
2013-07-20 17:28:00,74.0,68.2,29.90,NW,315,5.0,8.0,82,0.01,,---,0.77,VWS V14.01,2013-07-20 21:28:00,
2013-07-20 17:33:00,75.0,68.4,29.90,WNW,292,5.0,10.0,80,0.01,,---,0.77,VWS V14.01,2013-07-20 21:33:00,
2013-07-20 17:38:00,76.0,69.4,29.90,NW,315,3.0,10.0,80,0.01,,---,0.77,VWS V14.01,2013-07-20 21:38:00,
2013-07-20 17:44:00,76.0,68.7,29.90,NW,315,2.0,6.0,78,0.01,,---,0.77,VWS V14.01,2013-07-20 21:44:00,
2013-07-20 17:49:00,76.0,68.7,29.90,NNW,338,1.0,8.0,78,0.01,,---,0.77,VWS V14.01,2013-07-20 21:49:00,
2013-07-20 17:54:00,77.0,69.2,29.90,West,270,5.0,8.0,77,0.01,,---,0.77,VWS V14.01,2013-07-20 21:54:00,
2013-07-20 17:59:00,76.0,68.3,29.90,NNW,338,4.0,9.0,77,0.01,,---,0.77,VWS V14.01,2013-07-20 21:59:00,
2013-07-20 18:04:00,76.0,68.3,29.90,NNW,338,3.0,8.0,77,0.00,,---,0.77,VWS V14.01,2013-07-20 22:04:00,
2013-07-20 18:10:00,76.0,68.3,29.90,NNW,338,2.0,8.0,77,0.00,,---,0.77,VWS V14.01,2013-07-20 22:10:00,
2013-07-20 18:15:00,76.0,68.7,29.90,WNW,292,1.0,8.0,78,0.00,,---,0.77,VWS V14.01,2013-07-20 22:15:00,
2013-07-20 18:20:00,76.0,67.9,29.90,NNW,338,4.0,8.0,76,0.00,,---,0.77,VWS V14.01,2013-07-20 22:20:00,
2013-07-20 18:25:00,76.0,66.3,29.90,NW,315,1.0,7.0,72,0.00,,---,0.77,VWS V14.01,2013-07-20 22:25:00,
2013-07-20 18:30:00,76.0,65.1,29.90,NW,315,3.0,8.0,69,0.00,,---,0.77,VWS V14.01,2013-07-20 22:30:00,
2013-07-20 18:36:00,76.0,65.9,29.90,NNW,338,1.0,8.0,71,0.00,,---,0.77,VWS V14.01,2013-07-20 22:36:00,
2013-07-20 18:41:00,76.0,65.9,29.91,NW,315,2.0,4.0,71,0.00,,---,0.77,VWS V14.01,2013-07-20 22:41:00,
2013-07-20 18:46:00,75.0,64.6,29.91,WNW,292,4.0,8.0,70,0.00,,---,0.77,VWS V14.01,2013-07-20 22:46:00,
2013-07-20 18:51:00,75.0,65.0,29.91,NNW,338,1.0,8.0,71,0.00,,---,0.77,VWS V14.01,2013-07-20 22:51:00,
2013-07-20 18:56:00,75.0,65.4,29.92,WNW,292,1.0,8.0,72,0.00,,---,0.77,VWS V14.01,2013-07-20 22:56:00,
2013-07-20 19:01:00,75.0,65.8,29.92,WNW,292,3.0,6.0,73,0.00,,---,0.77,VWS V14.01,2013-07-20 23:01:00,
2013-07-20 19:07:00,75.0,65.8,29.92,NW,315,2.0,8.0,73,0.00,,---,0.77,VWS V14.01,2013-07-20 23:07:00,
2013-07-20 19:13:00,75.0,65.8,29.92,NNW,338,1.0,8.0,73,0.00,,---,0.77,VWS V14.01,2013-07-20 23:13:00,
2013-07-20 19:18:00,75.0,66.2,29.91,NW,315,2.0,8.0,74,0.00,,---,0.77,VWS V14.01,2013-07-20 23:18:00,
2013-07-20 19:23:00,75.0,65.8,29.91,NNW,338,3.0,5.0,73,0.00,,---,0.77,VWS V14.01,2013-07-20 23:23:00,
2013-07-20 19:28:00,75.0,65.8,29.91,NNW,338,5.0,6.0,73,0.00,,---,0.77,VWS V14.01,2013-07-20 23:28:00,
2013-07-20 19:34:00,75.0,65.8,29.91,NNW,338,3.0,6.0,73,0.00,,---,0.77,VWS V14.01,2013-07-20 23:34:00,
2013-07-20 19:39:00,74.0,64.4,29.92,WNW,292,2.0,6.0,72,0.00,,---,0.77,VWS V14.01,2013-07-20 23:39:00,
2013-07-20 19:44:00,74.0,64.4,29.91,WNW,292,2.0,6.0,72,0.00,,---,0.77,VWS V14.01,2013-07-20 23:44:00,
2013-07-20 19:49:00,74.0,64.0,29.92,NNW,338,3.0,7.0,71,0.00,,---,0.77,VWS V14.01,2013-07-20 23:49:00,
2013-07-20 19:54:00,74.0,64.4,29.92,West,270,3.0,7.0,72,0.00,,---,0.77,VWS V14.01,2013-07-20 23:54:00,
2013-07-20 20:00:00,74.0,64.4,29.92,WNW,292,3.0,7.0,72,0.00,,---,0.77,VWS V14.01,2013-07-21 00:00:00,
2013-07-20 20:05:00,74.0,64.8,29.92,WNW,292,3.0,3.0,73,0.00,,---,0.77,VWS V14.01,2013-07-21 00:05:00,
2013-07-20 20:10:00,74.0,65.6,29.92,WSW,248,1.0,5.0,75,0.00,,---,0.77,VWS V14.01,2013-07-21 00:10:00,
2013-07-20 20:15:00,74.0,66.0,29.92,WSW,248,1.0,5.0,76,0.00,,---,0.77,VWS V14.01,2013-07-21 00:15:00,
2013-07-20 20:20:00,74.0,66.3,29.92,SSW,202,1.0,5.0,77,0.00,,---,0.77,VWS V14.01,2013-07-21 00:20:00,
2013-07-20 20:25:00,74.0,66.7,29.93,WSW,248,3.0,3.0,78,0.00,,---,0.77,VWS V14.01,2013-07-21 00:25:00,
2013-07-20 20:30:00,74.0,66.7,29.93,WNW,292,3.0,5.0,78,0.00,,---,0.77,VWS V14.01,2013-07-21 00:30:00,
2013-07-20 20:35:00,73.0,65.7,29.94,WNW,292,4.0,5.0,78,0.00,,---,0.77,VWS V14.01,2013-07-21 00:35:00,
2013-07-20 20:40:00,73.0,65.7,29.93,North,0,2.0,5.0,78,0.00,,---,0.77,VWS V14.01,2013-07-21 00:40:00,
2013-07-20 20:46:00,73.0,66.1,29.94,WNW,292,3.0,6.0,79,0.00,,---,0.77,VWS V14.01,2013-07-21 00:46:00,
2013-07-20 20:51:00,73.0,66.5,29.94,WNW,292,1.0,6.0,80,0.00,,---,0.77,VWS V14.01,2013-07-21 00:51:00,
2013-07-20 20:56:00,72.0,65.5,29.94,WNW,292,3.0,6.0,80,0.00,,---,0.77,VWS V14.01,2013-07-21 00:56:00,
2013-07-20 21:01:00,72.0,65.9,29.95,NW,315,1.0,1.0,81,0.00,,---,0.77,VWS V14.01,2013-07-21 01:01:00,
2013-07-20 21:06:00,72.0,66.2,29.95,West,270,1.0,3.0,82,0.00,,---,0.77,VWS V14.01,2013-07-21 01:06:00,
2013-07-20 21:11:00,72.0,66.6,29.95,West,270,2.0,7.0,83,0.00,,---,0.77,VWS V14.01,2013-07-21 01:11:00,
2013-07-20 21:16:00,71.0,65.6,29.95,WSW,248,1.0,7.0,83,0.00,,---,0.77,VWS V14.01,2013-07-21 01:16:00,
2013-07-20 21:21:00,71.0,65.9,29.94,WSW,248,3.0,3.0,84,0.00,,---,0.77,VWS V14.01,2013-07-21 01:21:00,
2013-07-20 21:27:00,71.0,66.3,29.94,WSW,248,3.0,4.0,85,0.00,,---,0.77,VWS V14.01,2013-07-21 01:27:00,
2013-07-20 21:32:00,71.0,66.3,29.95,WSW,248,3.0,4.0,85,0.00,,---,0.77,VWS V14.01,2013-07-21 01:32:00,
2013-07-20 21:37:00,70.0,65.6,29.95,WSW,248,3.0,4.0,86,0.00,,---,0.77,VWS V14.01,2013-07-21 01:37:00,
2013-07-20 21:42:00,70.0,65.6,29.95,WSW,248,4.0,4.0,86,0.00,,---,0.77,VWS V14.01,2013-07-21 01:42:00,
2013-07-20 21:47:00,70.0,66.0,29.96,WSW,248,2.0,4.0,87,0.00,,---,0.77,VWS V14.01,2013-07-21 01:47:00,
2013-07-20 21:52:00,70.0,66.0,29.96,WSW,248,2.0,4.0,87,0.00,,---,0.77,VWS V14.01,2013-07-21 01:52:00,
2013-07-20 21:57:00,70.0,66.3,29.96,WSW,248,2.0,4.0,88,0.00,,---,0.77,VWS V14.01,2013-07-21 01:57:00,
2013-07-20 22:02:00,69.0,65.3,29.96,WSW,248,3.0,4.0,88,0.00,,---,0.77,VWS V14.01,2013-07-21 02:02:00,
2013-07-20 22:07:00,69.0,65.3,29.96,West,270,3.0,6.0,88,0.00,,---,0.77,VWS V14.01,2013-07-21 02:07:00,
2013-07-20 22:12:00,69.0,65.3,29.96,WSW,248,3.0,6.0,88,0.00,,---,0.77,VWS V14.01,2013-07-21 02:12:00,
2013-07-20 22:17:00,69.0,65.3,29.96,West,270,3.0,6.0,88,0.00,,---,0.77,VWS V14.01,2013-07-21 02:17:00,
2013-07-20 22:23:00,69.0,65.0,29.96,WSW,248,5.0,5.0,87,0.00,,---,0.77,VWS V14.01,2013-07-21 02:23:00,
2013-07-20 22:28:00,69.0,65.0,29.96,WSW,248,4.0,5.0,87,0.00,,---,0.77,VWS V14.01,2013-07-21 02:28:00,
2013-07-20 22:33:00,69.0,65.0,29.96,West,270,4.0,5.0,87,0.00,,---,0.77,VWS V14.01,2013-07-21 02:33:00,
2013-07-20 22:38:00,69.0,64.6,29.96,WSW,248,3.0,5.0,86,0.00,,---,0.77,VWS V14.01,2013-07-21 02:38:00,
2013-07-20 22:43:00,69.0,65.0,29.96,WSW,248,3.0,4.0,87,0.00,,---,0.77,VWS V14.01,2013-07-21 02:43:00,
2013-07-20 22:48:00,68.0,64.0,29.97,West,270,3.0,4.0,87,0.00,,---,0.77,VWS V14.01,2013-07-21 02:48:00,
2013-07-20 22:54:00,68.0,64.0,29.97,SW,225,3.0,5.0,87,0.00,,---,0.77,VWS V14.01,2013-07-21 02:54:00,
2013-07-20 22:59:00,68.0,64.0,29.97,SW,225,2.0,5.0,87,0.00,,---,0.77,VWS V14.01,2013-07-21 02:59:00,
2013-07-20 23:04:00,68.0,64.3,29.97,SW,225,3.0,4.0,88,0.00,,---,0.77,VWS V14.01,2013-07-21 03:04:00,
2013-07-20 23:09:00,68.0,64.3,29.97,WSW,248,3.0,4.0,88,0.00,,---,0.77,VWS V14.01,2013-07-21 03:09:00,
2013-07-20 23:14:00,68.0,64.3,29.97,WSW,248,1.0,4.0,88,0.00,,---,0.77,VWS V14.01,2013-07-21 03:14:00,
2013-07-20 23:20:00,67.0,63.3,29.97,WSW,248,1.0,4.0,88,0.00,,---,0.77,VWS V14.01,2013-07-21 03:20:00,
2013-07-20 23:25:00,67.0,63.3,29.97,SW,225,1.0,3.0,88,0.00,,---,0.77,VWS V14.01,2013-07-21 03:25:00,
2013-07-20 23:30:00,67.0,63.3,29.97,WSW,248,1.0,3.0,88,0.00,,---,0.77,VWS V14.01,2013-07-21 03:30:00,
2013-07-20 23:35:00,67.0,63.7,29.97,WSW,248,2.0,3.0,89,0.00,,---,0.77,VWS V14.01,2013-07-21 03:35:00,
2013-07-20 23:40:00,67.0,63.7,29.97,West,270,0.0,3.0,89,0.00,,---,0.77,VWS V14.01,2013-07-21 03:40:00,
2013-07-20 23:45:00,67.0,63.7,29.98,WNW,292,0.0,1.0,89,0.00,,---,0.77,VWS V14.01,2013-07-21 03:45:00,
2013-07-20 23:50:00,67.0,64.0,29.98,WNW,292,0.0,2.0,90,0.00,,---,0.77,VWS V14.01,2013-07-21 03:50:00,
2013-07-20 23:55:00,66.0,63.0,29.98,West,270,0.0,2.0,90,0.00,,---,0.77,VWS V14.01,2013-07-21 03:55:00,